(°C)
-1°
-2°
-3°
-3°
-3°
(°C)
-6°
-7°
-8°
-9°
-9°
-10°
-10°
VSV
VSV
VSV
VSV
VSV
VSV
SV
(km/h)
22-34
22-34
22-35
21-34
20-33
18-32
18-32
(mm)
0
0
0
0
0
0
0
(%)
0
0
0
0
0
0
0

Elevația soarelui

/ -50.1°
sun-icon
UV 1
07:46
18:10
Al doilea pătrar (201°)
18:55
09:24

METAR pentru 51.02°N 71.47°E (UACC)

Ora Condiții Temperatură/
Punctul de rouă
Vânt Vizibilitate Vremea Nori Presiune Schimbă Brut
VFR 1°C / -3°C 250º 12kt >10km - Broken Clouds 3600ft 1013 No Significant change. Runway 22: Clear and dry, , friction coefficient 0.70. UACC 211830Z 25006MPS 9999 BKN036 01/M03 Q1013 R22/0///70 NOSIG RMK QFE729/0972
VFR 1°C / -3°C 250º 12kt >10km - Broken Clouds 3600ft 1013 No Significant change. Runway 22: Clear and dry, , friction coefficient 0.70. UACC 211800Z 25006MPS 9999 BKN036 01/M03 Q1013 R22/0///70 NOSIG RMK QFE729/0972
VFR 1°C / -3°C 240º 12kt >10km - Broken Clouds 3600ft 1013 No Significant change. Runway 22: Clear and dry, , friction coefficient 0.70. UACC 211730Z 24006MPS 9999 BKN036 01/M03 Q1013 R22/0///70 NOSIG RMK QFE729/0972
VFR 1°C / -2°C 240º 12kt >10km - Broken Clouds 4000ft 1013 No Significant change. Runway 22: Clear and dry, , friction coefficient 0.70. UACC 211700Z 24006MPS 9999 BKN040 01/M02 Q1013 R22/0///70 NOSIG RMK QFE728/0971
VFR 2°C / -2°C 250º 10kt >10km - Overcast 4000ft 1012 No Significant change. Runway 22: Clear and dry, , friction coefficient 0.70. UACC 211630Z 25005MPS 9999 OVC040 02/M02 Q1012 R22/0///70 NOSIG RMK QFE728/0971
VFR 2°C / -2°C 250º 12kt >10km - Overcast 3600ft 1012 No Significant change. Runway 22: Clear and dry, , friction coefficient 0.70. UACC 211600Z 25006MPS 9999 OVC036 02/M02 Q1012 R22/0///70 NOSIG RMK QFE728/0971
VFR 2°C / -2°C 250º 12kt >10km - Overcast 3300ft 1012 No Significant change. Runway 22: Clear and dry, , friction coefficient 0.70. UACC 211530Z 25006MPS 9999 OVC033 02/M02 Q1012 R22/0///70 NOSIG RMK QFE728/0970
VFR 3°C / 0°C 250º 12kt >10km - Few Clouds 3000ft
Overcast 3600ft
1012 No Significant change. Runway 22: Clear and dry, , friction coefficient 0.70. UACC 211500Z 25006MPS 9999 FEW030CB OVC036 03/M00 Q1012 R22/0///70 NOSIG RMK QFE728/0970
VFR 3°C / 0°C 240º 14kt >10km - Scattered Clouds 2500ft
Overcast 3600ft
1011 No Significant change. Runway 22: Clear and dry, , friction coefficient 0.70. UACC 211430Z 24007MPS 9999 SCT025CB OVC036 03/M00 Q1011 R22/0///70 NOSIG RMK QFE727/0970
MVFR 3°C / 0°C 240º 12kt >10km - Scattered Clouds 1000ft
Overcast 3000ft
1011 No Significant change. Runway 22: Clear and dry, , friction coefficient 0.70. UACC 211400Z 24006MPS 9999 SCT010 OVC030CB 03/00 Q1011 R22/0///70 NOSIG RMK QFE727/0970
MVFR 3°C / 1°C 250º 14kt 9000m - Scattered Clouds 1000ft
Overcast 3000ft
1011 No Significant change. Runway 22: Clear and dry, , friction coefficient 0.70. UACC 211330Z 25007MPS 9000 SCT010 OVC030CB 03/01 Q1011 R22/0///70 NOSIG RMK QFE727/0969
MVFR 4°C / 0°C 250º 17kt >10km Light Showers Rain 3.00mm precipitation Vertical Visibility of 0ft.
Broken Clouds 3000ft
1010 No Significant change. Runway 22: Clear and dry, , friction coefficient 0.70. UACC 211300Z 25009MPS 9999 -SHRA SCT015 BKN030CB 04/M00 Q1010 R22/0///70 NOSIG RMK QFE727/0969
VFR 4°C / -1°C 240º 19kt >10km Light Showers Rain 3.00mm precipitation Vertical Visibility of 0ft.
Broken Clouds 4300ft
1010 No Significant change. Runway 22: Clear and dry, , friction coefficient 0.70. UACC 211230Z 24010MPS 9999 -SHRA SCT026CB BKN043 04/M01 Q1010 R22/0///70 NOSIG RMK QFE726/0969
VFR 5°C / -2°C 240º 16kt >10km - Scattered Clouds 3300ft 1010 No Significant change. Runway 22: Clear and dry, , friction coefficient 0.70. UACC 211200Z 24008MPS 9999 SCT033CB 05/M02 Q1010 R22/0///70 NOSIG RMK QFE726/0968
VFR 5°C / -3°C 240º 17kt >10km - Scattered Clouds 4300ft 1010 No Significant change. Runway 22: Clear and dry, , friction coefficient 0.70. UACC 211130Z 24009MPS 9999 SCT043CB 05/M03 Q1010 R22/0///70 NOSIG RMK QFE726/0968
VFR 5°C / -4°C 230º 19kt >10km - Scattered Clouds 4300ft 1009 No Significant change. Runway 22: Clear and dry, , friction coefficient 0.70. UACC 211100Z 23010MPS 9999 SCT043CB 05/M04 Q1009 R22/0///70 NOSIG RMK QFE726/0968
VFR 6°C / -4°C 250º 17kt >10km - Scattered Clouds 4300ft 1009 No Significant change. Runway 22: Clear and dry, , friction coefficient 0.70. UACC 211030Z 25009MPS 9999 SCT043CB 06/M04 Q1009 R22/0///70 NOSIG RMK QFE725/0967
VFR 6°C / -4°C 240º 21kt >10km - Scattered Clouds 4300ft 1009 No Significant change. Runway 22: Clear and dry, , friction coefficient 0.70. UACC 211000Z 24011MPS 9999 SCT043CB 06/M04 Q1009 R22/0///70 NOSIG RMK QFE726/0968
VFR 6°C / -3°C 240º 21kt >10km - Scattered Clouds 4300ft 1009 No Significant change. Runway 22: Clear and dry, , friction coefficient 0.70. UACC 210930Z 24011MPS 9999 SCT043CB 06/M03 Q1009 R22/0///70 NOSIG RMK QFE725/0967
VFR 7°C / -3°C 240º 17kt >10km - Scattered Clouds 4300ft 1008 No Significant change. Runway 22: Wet or puddles, 51-100% contamination, friction coefficient 0.60. UACC 210900Z 24009MPS 9999 SCT043CB 07/M03 Q1008 R22/29//60 NOSIG RMK QFE725/0967
VFR 8°C / -4°C 250º 19kt >10km - Scattered Clouds 4300ft 1008 No Significant change. Runway 22: Wet or puddles, 51-100% contamination, friction coefficient 0.60. UACC 210830Z 25010MPS 9999 SCT043CB 08/M04 Q1008 R22/29//60 NOSIG RMK QFE725/0967
VFR 8°C / -4°C 240º 21kt >10km - Few Clouds 3000ft
Broken Clouds 4300ft
1008 No Significant change. Runway 22: Wet or puddles, 51-100% contamination, friction coefficient 0.60. UACC 210800Z 24011MPS 9999 FEW030CB BKN043 08/M04 Q1008 R22/29//60 NOSIG RMK QFE725/0967
VFR 8°C / 2°C 230º 19kt >10km - Few Clouds 1500ft
Broken Clouds 4300ft
1008 No Significant change. Runway 22: Wet or puddles, 51-100% contamination, friction coefficient 0.60. UACC 210730Z 23010MPS 9999 FEW015 BKN043CB 08/02 Q1008 R22/29//60 NOSIG RMK QFE725/0967
VFR 6°C / 0°C 240º 16kt >10km - Few Clouds 1500ft
Broken Clouds 4300ft
1008 No Significant change. Runway 22: Wet or puddles, 51-100% contamination, friction coefficient 0.60. UACC 210700Z 24008MPS 9999 FEW015 BKN043CB 06/M00 Q1008 R22/29//60 NOSIG RMK QFE725/0967

VFR

1°C / -3°C

[Mai mult]
Vânt 250º 12kt
Vizibilitate >10km
Vremea -
Nori Broken Clouds 3600ft
Presiune 1013
Schimbă No Significant change. Runway 22: Clear and dry, , friction coefficient 0.70.
Brut UACC 211830Z 25006MPS 9999 BKN036 01/M03 Q1013 R22/0///70 NOSIG RMK QFE729/0972

VFR

1°C / -3°C

[Mai mult]
Vânt 250º 12kt
Vizibilitate >10km
Vremea -
Nori Broken Clouds 3600ft
Presiune 1013
Schimbă No Significant change. Runway 22: Clear and dry, , friction coefficient 0.70.
Brut UACC 211800Z 25006MPS 9999 BKN036 01/M03 Q1013 R22/0///70 NOSIG RMK QFE729/0972

VFR

1°C / -3°C

[Mai mult]
Vânt 240º 12kt
Vizibilitate >10km
Vremea -
Nori Broken Clouds 3600ft
Presiune 1013
Schimbă No Significant change. Runway 22: Clear and dry, , friction coefficient 0.70.
Brut UACC 211730Z 24006MPS 9999 BKN036 01/M03 Q1013 R22/0///70 NOSIG RMK QFE729/0972

VFR

1°C / -2°C

[Mai mult]
Vânt 240º 12kt
Vizibilitate >10km
Vremea -
Nori Broken Clouds 4000ft
Presiune 1013
Schimbă No Significant change. Runway 22: Clear and dry, , friction coefficient 0.70.
Brut UACC 211700Z 24006MPS 9999 BKN040 01/M02 Q1013 R22/0///70 NOSIG RMK QFE728/0971

VFR

2°C / -2°C

[Mai mult]
Vânt 250º 10kt
Vizibilitate >10km
Vremea -
Nori Overcast 4000ft
Presiune 1012
Schimbă No Significant change. Runway 22: Clear and dry, , friction coefficient 0.70.
Brut UACC 211630Z 25005MPS 9999 OVC040 02/M02 Q1012 R22/0///70 NOSIG RMK QFE728/0971

VFR

2°C / -2°C

[Mai mult]
Vânt 250º 12kt
Vizibilitate >10km
Vremea -
Nori Overcast 3600ft
Presiune 1012
Schimbă No Significant change. Runway 22: Clear and dry, , friction coefficient 0.70.
Brut UACC 211600Z 25006MPS 9999 OVC036 02/M02 Q1012 R22/0///70 NOSIG RMK QFE728/0971

VFR

2°C / -2°C

[Mai mult]
Vânt 250º 12kt
Vizibilitate >10km
Vremea -
Nori Overcast 3300ft
Presiune 1012
Schimbă No Significant change. Runway 22: Clear and dry, , friction coefficient 0.70.
Brut UACC 211530Z 25006MPS 9999 OVC033 02/M02 Q1012 R22/0///70 NOSIG RMK QFE728/0970

VFR

3°C / 0°C

[Mai mult]
Vânt 250º 12kt
Vizibilitate >10km
Vremea -
Nori Few Clouds 3000ft
Overcast 3600ft
Presiune 1012
Schimbă No Significant change. Runway 22: Clear and dry, , friction coefficient 0.70.
Brut UACC 211500Z 25006MPS 9999 FEW030CB OVC036 03/M00 Q1012 R22/0///70 NOSIG RMK QFE728/0970

VFR

3°C / 0°C

[Mai mult]
Vânt 240º 14kt
Vizibilitate >10km
Vremea -
Nori Scattered Clouds 2500ft
Overcast 3600ft
Presiune 1011
Schimbă No Significant change. Runway 22: Clear and dry, , friction coefficient 0.70.
Brut UACC 211430Z 24007MPS 9999 SCT025CB OVC036 03/M00 Q1011 R22/0///70 NOSIG RMK QFE727/0970

MVFR

3°C / 0°C

[Mai mult]
Vânt 240º 12kt
Vizibilitate >10km
Vremea -
Nori Scattered Clouds 1000ft
Overcast 3000ft
Presiune 1011
Schimbă No Significant change. Runway 22: Clear and dry, , friction coefficient 0.70.
Brut UACC 211400Z 24006MPS 9999 SCT010 OVC030CB 03/00 Q1011 R22/0///70 NOSIG RMK QFE727/0970

MVFR

3°C / 1°C

[Mai mult]
Vânt 250º 14kt
Vizibilitate 9000m
Vremea -
Nori Scattered Clouds 1000ft
Overcast 3000ft
Presiune 1011
Schimbă No Significant change. Runway 22: Clear and dry, , friction coefficient 0.70.
Brut UACC 211330Z 25007MPS 9000 SCT010 OVC030CB 03/01 Q1011 R22/0///70 NOSIG RMK QFE727/0969

MVFR

4°C / 0°C

[Mai mult]
Vânt 250º 17kt
Vizibilitate >10km
Vremea Light Showers Rain 3.00mm precipitation
Nori Vertical Visibility of 0ft.
Broken Clouds 3000ft
Presiune 1010
Schimbă No Significant change. Runway 22: Clear and dry, , friction coefficient 0.70.
Brut UACC 211300Z 25009MPS 9999 -SHRA SCT015 BKN030CB 04/M00 Q1010 R22/0///70 NOSIG RMK QFE727/0969

VFR

4°C / -1°C

[Mai mult]
Vânt 240º 19kt
Vizibilitate >10km
Vremea Light Showers Rain 3.00mm precipitation
Nori Vertical Visibility of 0ft.
Broken Clouds 4300ft
Presiune 1010
Schimbă No Significant change. Runway 22: Clear and dry, , friction coefficient 0.70.
Brut UACC 211230Z 24010MPS 9999 -SHRA SCT026CB BKN043 04/M01 Q1010 R22/0///70 NOSIG RMK QFE726/0969

VFR

5°C / -2°C

[Mai mult]
Vânt 240º 16kt
Vizibilitate >10km
Vremea -
Nori Scattered Clouds 3300ft
Presiune 1010
Schimbă No Significant change. Runway 22: Clear and dry, , friction coefficient 0.70.
Brut UACC 211200Z 24008MPS 9999 SCT033CB 05/M02 Q1010 R22/0///70 NOSIG RMK QFE726/0968

VFR

5°C / -3°C

[Mai mult]
Vânt 240º 17kt
Vizibilitate >10km
Vremea -
Nori Scattered Clouds 4300ft
Presiune 1010
Schimbă No Significant change. Runway 22: Clear and dry, , friction coefficient 0.70.
Brut UACC 211130Z 24009MPS 9999 SCT043CB 05/M03 Q1010 R22/0///70 NOSIG RMK QFE726/0968

VFR

5°C / -4°C

[Mai mult]
Vânt 230º 19kt
Vizibilitate >10km
Vremea -
Nori Scattered Clouds 4300ft
Presiune 1009
Schimbă No Significant change. Runway 22: Clear and dry, , friction coefficient 0.70.
Brut UACC 211100Z 23010MPS 9999 SCT043CB 05/M04 Q1009 R22/0///70 NOSIG RMK QFE726/0968

VFR

6°C / -4°C

[Mai mult]
Vânt 250º 17kt
Vizibilitate >10km
Vremea -
Nori Scattered Clouds 4300ft
Presiune 1009
Schimbă No Significant change. Runway 22: Clear and dry, , friction coefficient 0.70.
Brut UACC 211030Z 25009MPS 9999 SCT043CB 06/M04 Q1009 R22/0///70 NOSIG RMK QFE725/0967

VFR

6°C / -4°C

[Mai mult]
Vânt 240º 21kt
Vizibilitate >10km
Vremea -
Nori Scattered Clouds 4300ft
Presiune 1009
Schimbă No Significant change. Runway 22: Clear and dry, , friction coefficient 0.70.
Brut UACC 211000Z 24011MPS 9999 SCT043CB 06/M04 Q1009 R22/0///70 NOSIG RMK QFE726/0968

VFR

6°C / -3°C

[Mai mult]
Vânt 240º 21kt
Vizibilitate >10km
Vremea -
Nori Scattered Clouds 4300ft
Presiune 1009
Schimbă No Significant change. Runway 22: Clear and dry, , friction coefficient 0.70.
Brut UACC 210930Z 24011MPS 9999 SCT043CB 06/M03 Q1009 R22/0///70 NOSIG RMK QFE725/0967

VFR

7°C / -3°C

[Mai mult]
Vânt 240º 17kt
Vizibilitate >10km
Vremea -
Nori Scattered Clouds 4300ft
Presiune 1008
Schimbă No Significant change. Runway 22: Wet or puddles, 51-100% contamination, friction coefficient 0.60.
Brut UACC 210900Z 24009MPS 9999 SCT043CB 07/M03 Q1008 R22/29//60 NOSIG RMK QFE725/0967

VFR

8°C / -4°C

[Mai mult]
Vânt 250º 19kt
Vizibilitate >10km
Vremea -
Nori Scattered Clouds 4300ft
Presiune 1008
Schimbă No Significant change. Runway 22: Wet or puddles, 51-100% contamination, friction coefficient 0.60.
Brut UACC 210830Z 25010MPS 9999 SCT043CB 08/M04 Q1008 R22/29//60 NOSIG RMK QFE725/0967

VFR

8°C / -4°C

[Mai mult]
Vânt 240º 21kt
Vizibilitate >10km
Vremea -
Nori Few Clouds 3000ft
Broken Clouds 4300ft
Presiune 1008
Schimbă No Significant change. Runway 22: Wet or puddles, 51-100% contamination, friction coefficient 0.60.
Brut UACC 210800Z 24011MPS 9999 FEW030CB BKN043 08/M04 Q1008 R22/29//60 NOSIG RMK QFE725/0967

VFR

8°C / 2°C

[Mai mult]
Vânt 230º 19kt
Vizibilitate >10km
Vremea -
Nori Few Clouds 1500ft
Broken Clouds 4300ft
Presiune 1008
Schimbă No Significant change. Runway 22: Wet or puddles, 51-100% contamination, friction coefficient 0.60.
Brut UACC 210730Z 23010MPS 9999 FEW015 BKN043CB 08/02 Q1008 R22/29//60 NOSIG RMK QFE725/0967

VFR

6°C / 0°C

[Mai mult]
Vânt 240º 16kt
Vizibilitate >10km
Vremea -
Nori Few Clouds 1500ft
Broken Clouds 4300ft
Presiune 1008
Schimbă No Significant change. Runway 22: Wet or puddles, 51-100% contamination, friction coefficient 0.60.
Brut UACC 210700Z 24008MPS 9999 FEW015 BKN043CB 06/M00 Q1008 R22/29//60 NOSIG RMK QFE725/0967

TAF pentru 51.02°N 71.47°E (UACC)

From till


Maximum Temperature 6ºC on . Minimum Temperature -1ºC on .
From till Wind 240º 16kt. Visibility 10km or more. Broken Clouds 1100ft. Broken Clouds 3000ft.
Temporarly from till Wind 250º 16kt. Gust 25kt. Visibility 3100m. Light Showers Snow . Broken Clouds 500ft. Broken Clouds 1100ft.
Temporarly from till Wind 220º 23kt. Gust 33kt. Scattered Clouds 2000ft.
Becoming from till Wind 230º 23kt. Visibility 10km or more. Broken Clouds 1100ft. Broken Clouds 3000ft.
Temporarly from till Wind 220º 23kt. Gust 33kt. Visibility 3100m. Light Showers Rain Light Showers Snow . Scattered Clouds 700ft. Overcast 1100ft.

Brut: TAF UACC 211711Z 2118/2218 24008MPS 9999 BKN011 BKN030 TX06/2209Z TNM01/2201Z TEMPO 2118/2205 25008G13MPS 3100 -SHSN BKN005 BKN011CB BECMG 2205/2206 23012MPS TEMPO 2205/2211 22012G17MPS SCT020CB TEMPO 2211/2218 22012G17MPS 3100 -SHRASN SCT007 OVC011CB

Imagini satelitare și ploaie pentru 51.02°N 71.47°E

Markerul cu locaţia este poziţionat pe 51.02°N 71.47°E. [Mai mult]

Imaginea satelitară în timp real combină lumina vizibilă din timpul zilei cu radiația cu infraroșu din timpul nopții. Pe timp de noapte, imaginea nu este întunecată, deoarece radiația cu infraroșu poate detecta diferențele de temperatură. Din păcate, norii joși și ceața sunt greu de recunoscut față de temperatura de la sol, din această cauză putând fi invizibili pe timp de noapte. Imaginile satelitare Meteosat pentru Europa sunt actualizate în timp real din 5 în 5 minute. Imaginile GOES-16/GOES-17 (America de Nord și de Sud) și Himawari (Asia) sunt actualizate din 10 în 10 minute.

Toate drepturile rezervate 2021 EUMETSAT / meteoblue. / Toate drepturile rezervate 2021 meteoblue

Radar și nowcast de precipitații pentru 51.02°N 71.47°E

Burniță
Ușoară
Moderat
Greu
Foarte greu
Grindină

Markerul de locație este plasat în 51.02°N 71.47°E. Această animație arată radarul de precipitații pentru ultima oră, precum și o 1h prognoză. Ploaia sau ninsoarea slabă ar putea fi invizibilă pentru radar. Intensitatea precipitațiilor este codificată prin culori, de la albastru deschis la portocaliu.